Shelton, WA

10:54 AM PDT on August 17, 2017 (GMT -0700)
Sanderson

Weather History for KSHN - April, 2013

Change the Weather History Date:

Thursday, April 25, 2013

  Actual Average Record
Temperature  
Mean Temperature 53 °F -  
Max Temperature 73 °F 59 °F 77 °F (2001)
Min Temperature 35 °F 39 °F 28 °F (2002)
Degree Days  
Heating Degree Days 12    
Growing Degree Days 3 (Base 50)    
Moisture  
Dew Point 41 °F    
Average Humidity 68    
Maximum Humidity 97    
Minimum Humidity 32    
Precipitation  
Precipitation 0.00 in - - ()
Sea Level Pressure  
Sea Level Pressure 30.08 in    
Wind  
Wind Speed 4 mph (WSW)    
Max Wind Speed 16 mph    
Max Gust Speed 21 mph    
Visibility 10 miles    
Events      
Averages and records for this station are not official NWS values.
T = Trace of Precipitation, MM = Missing Value Source: NWS Daily Summary

Daily Weather History Graph

Daily Weather History Graph

Search for Another Location

Airport or City:

Trip Planner

Search our weather history database for the weather conditions in past years. The results will help you decide how hot, cold, wet, or windy it might be!

Date:

Astronomy

Apr. 25, 2013 Rise Set
Actual Time 6:05 AM PDT 8:16 PM PDT
Civil Twilight 5:32 AM PDT 8:49 PM PDT
Nautical Twilight 4:51 AM PDT 9:30 PM PDT
Astronomical Twilight 4:05 AM PDT 10:17 PM PDT
Moon 8:38 PM PDT (4/25) 5:52 AM PDT (4/25)
Length of Visible Light 15h 16m
Length of Day
14h 10m
Full, 100% of the Moon is Illuminated
Apr 25
Full
Apr 25
Full
May 2
Last Quarter
May 9
New
May 17
First Quarter

Hourly Weather History & Observations

Time (PDT) Temp. Windchill Dew Point Humidity Pressure Visibility Wind Dir Wind Speed Gust Speed Precip Events Conditions
12:53 AM 39.9 °F - 37.0 °F 89% 30.06 in 10.0 mi Calm Calm - N/A   Clear
1:53 AM 37.9 °F - 36.0 °F 93% 30.05 in 10.0 mi Calm Calm - N/A   Clear
2:53 AM 37.9 °F - 35.1 °F 89% 30.04 in 10.0 mi Calm Calm - N/A   Clear
3:53 AM 37.4 °F 33.8 °F 35.6 °F 93% 30.04 in 10.0 mi WNW 4.6 mph - N/A   Clear
4:53 AM 36.0 °F - 35.1 °F 97% 30.04 in 10.0 mi Calm Calm - N/A   Clear
5:53 AM 35.1 °F - 34.0 °F 96% 30.04 in 10.0 mi Calm Calm - N/A   Clear
6:53 AM 39.9 °F 37.8 °F 36.0 °F 86% 30.06 in 10.0 mi NW 3.5 mph - N/A   Clear
7:53 AM 46.9 °F - 41.0 °F 80% 30.06 in 10.0 mi SW 3.5 mph - N/A   Clear
8:53 AM 52.0 °F - 39.9 °F 63% 30.07 in 10.0 mi Calm Calm - N/A   Clear
9:53 AM 57.0 °F - 37.9 °F 49% 30.08 in 10.0 mi Calm Calm - N/A   Clear
10:53 AM 60.1 °F - 37.0 °F 42% 30.08 in 10.0 mi East 3.5 mph - N/A   Clear
11:53 AM 64.0 °F - 36.0 °F 35% 30.08 in 10.0 mi Variable 3.5 mph - N/A   Clear
12:53 PM 66.9 °F - 37.0 °F 33% 30.08 in 10.0 mi Calm Calm - N/A   Clear
1:53 PM 69.1 °F - 37.9 °F 32% 30.06 in 10.0 mi SSW 5.8 mph - N/A   Clear
2:53 PM 71.1 °F - 39.9 °F 32% 30.06 in 10.0 mi West 6.9 mph - N/A   Clear
3:53 PM 71.1 °F - 39.9 °F 32% 30.06 in 10.0 mi WSW 9.2 mph - N/A   Clear
4:53 PM 71.1 °F - 48.0 °F 44% 30.06 in 10.0 mi SW 12.7 mph 20.7 mph N/A   Clear
5:53 PM 68.0 °F - 46.9 °F 47% 30.07 in 10.0 mi WSW 13.8 mph - N/A   Clear
6:53 PM 64.9 °F - 46.9 °F 52% 30.08 in 10.0 mi SW 12.7 mph - N/A   Clear
7:53 PM 59.0 °F - 48.0 °F 67% 30.09 in 10.0 mi SW 12.7 mph - N/A   Clear
8:53 PM 53.1 °F - 46.9 °F 80% 30.12 in 10.0 mi WSW 16.1 mph - N/A   Clear
9:53 PM 48.9 °F - 46.0 °F 90% 30.14 in 10.0 mi SW 15.0 mph - N/A   Clear
10:18 PM 48.2 °F - 44.6 °F 87% 30.14 in 10.0 mi WSW 11.5 mph - N/A   Scattered Clouds
10:35 PM 48.2 °F - 44.6 °F 87% 30.14 in 10.0 mi WSW 9.2 mph - N/A   Mostly Cloudy
10:53 PM 48.0 °F - 45.0 °F 89% 30.15 in 10.0 mi WSW 10.4 mph - N/A   Overcast
11:53 PM 46.4 °F 40.4 °F 44.6 °F 93% 30.15 in 10.0 mi WSW 13.8 mph 20.7 mph N/A   Overcast